Erwin, NC

6:39 PM EDT on August 18, 2017 (GMT -0400)
Harnett County

Weather History for KHRJ - February, 2014

Change the Weather History Date:

Thursday, February 27, 2014

  Actual Average Record
Temperature  
Mean Temperature 40 °F -  
Max Temperature 55 °F 55 °F 80 °F (2011)
Min Temperature 25 °F 30 °F 10 °F (1963)
Degree Days  
Heating Degree Days 25    
Moisture  
Dew Point 21 °F    
Average Humidity 56    
Maximum Humidity 97    
Minimum Humidity 19    
Precipitation  
Precipitation 0.00 in - - ()
Sea Level Pressure  
Sea Level Pressure 29.86 in    
Wind  
Wind Speed 2 mph (WSW)    
Max Wind Speed 13 mph    
Max Gust Speed 20 mph    
Visibility 10 miles    
Events      
Averages and records for this station are not official NWS values.
T = Trace of Precipitation, MM = Missing Value Source: NWS Daily Summary

Daily Weather History Graph

Daily Weather History Graph

Search for Another Location

Airport or City:

Trip Planner

Search our weather history database for the weather conditions in past years. The results will help you decide how hot, cold, wet, or windy it might be!

Date:

Astronomy

Feb. 27, 2014 Rise Set
Actual Time 6:47 AM EST 6:08 PM EST
Civil Twilight 6:21 AM EST 6:34 PM EST
Nautical Twilight 5:52 AM EST 7:03 PM EST
Astronomical Twilight 5:22 AM EST 7:33 PM EST
Moon 5:15 AM EST (2/27) 4:33 PM EST (2/27)
Length of Visible Light 12h 12m
Length of Day
11h 21m
Waning Crescent, 4% of the Moon is Illuminated
Feb 27
Waning Crescent
Mar 1
New
Mar 8
First Quarter
Mar 16
Full
Mar 23
Last Quarter

Hourly Weather History & Observations

Time (EST) Temp. Windchill Dew Point Humidity Pressure Visibility Wind Dir Wind Speed Gust Speed Precip Events Conditions
12:15 AM 30.6 °F - 29.7 °F 96% 29.86 in 10.0 mi Calm Calm - N/A   Clear
12:35 AM 30.0 °F - 28.4 °F 94% 29.86 in 10.0 mi Calm Calm - N/A   Clear
12:55 AM 30.2 °F - 29.1 °F 96% 29.86 in 10.0 mi Calm Calm - N/A   Clear
1:15 AM 28.4 °F - 27.5 °F 96% 29.86 in 10.0 mi Calm Calm - N/A   Clear
1:35 AM 29.7 °F - 28.9 °F 97% 29.86 in 10.0 mi Calm Calm - N/A   Clear
1:55 AM 28.2 °F - 27.5 °F 97% 29.86 in 10.0 mi Calm Calm - N/A   Clear
2:15 AM 28.2 °F - 27.5 °F 97% 29.85 in 10.0 mi Calm Calm - N/A   Clear
2:35 AM 28.2 °F - 27.5 °F 97% 29.85 in 10.0 mi Calm Calm - N/A   Clear
2:55 AM 28.0 °F - 27.3 °F 97% 29.85 in 10.0 mi Calm Calm - N/A   Clear
3:15 AM 28.0 °F - 27.1 °F 96% 29.84 in 10.0 mi Calm Calm - N/A   Clear
3:35 AM 28.4 °F - 26.1 °F 91% 29.84 in 10.0 mi Calm Calm - N/A   Clear
3:55 AM 27.7 °F - 25.3 °F 91% 29.84 in 10.0 mi Calm Calm - N/A   Clear
4:15 AM 27.0 °F - 25.7 °F 95% 29.85 in 10.0 mi Calm Calm - N/A   Clear
4:35 AM 28.0 °F - 22.5 °F 80% 29.85 in 10.0 mi Calm Calm - N/A   Clear
4:55 AM 27.5 °F - 22.1 °F 80% 29.85 in 10.0 mi Calm Calm - N/A   Clear
5:15 AM 27.5 °F - 21.9 °F 80% 29.85 in 10.0 mi Calm Calm - N/A   Clear
5:35 AM 26.6 °F - 22.3 °F 84% 29.86 in 10.0 mi Calm Calm - N/A   Clear
5:55 AM 25.7 °F - 22.3 °F 87% 29.87 in 10.0 mi Calm Calm - N/A   Clear
6:15 AM 26.6 °F - 21.4 °F 81% 29.87 in 10.0 mi Calm Calm - N/A   Clear
6:35 AM 26.2 °F - 24.4 °F 93% 29.87 in 10.0 mi Calm Calm - N/A   Clear
6:55 AM 26.4 °F - 25.2 °F 95% 29.87 in 10.0 mi Calm Calm - N/A   Clear
7:15 AM 25.9 °F - 24.6 °F 95% 29.87 in 10.0 mi Calm Calm - N/A   Clear
7:35 AM 26.8 °F 22.8 °F 25.5 °F 95% 29.87 in 10.0 mi South 3.5 mph - N/A   Clear
7:55 AM 28.8 °F - 26.2 °F 90% 29.87 in 10.0 mi Calm Calm - N/A   Clear
8:15 AM 30.2 °F - 24.8 °F 80% 29.87 in 10.0 mi Calm Calm - N/A   Clear
8:40 AM 32.2 °F 28.9 °F 21.2 °F 64% 29.88 in 10.0 mi South 3.5 mph - N/A   Clear
8:55 AM 33.3 °F 30.2 °F 17.4 °F 52% 29.88 in 10.0 mi South 3.5 mph - N/A   Clear
9:15 AM 34.5 °F - 17.2 °F 49% 29.87 in 10.0 mi Calm Calm - N/A   Clear
9:35 AM 36.5 °F - 16.9 °F 45% 29.87 in 10.0 mi Calm Calm - N/A   Clear
9:55 AM 38.1 °F 35.7 °F 16.2 °F 41% 29.87 in 10.0 mi SSW 3.5 mph - N/A   Clear
10:15 AM 40.1 °F 36.1 °F 16.2 °F 38% 29.86 in 10.0 mi South 5.8 mph - N/A   Clear
10:35 AM 41.7 °F 36.1 °F 13.6 °F 32% 29.86 in 10.0 mi South 9.2 mph - N/A   Clear
10:55 AM 43.5 °F 39.4 °F 17.6 °F 35% 29.85 in 10.0 mi South 6.9 mph - N/A   Clear
11:15 AM 44.4 °F 40.5 °F 19.0 °F 36% 29.85 in 10.0 mi SW 6.9 mph - N/A   Clear
11:35 AM 46.0 °F 40.2 °F 20.8 °F 37% 29.84 in 10.0 mi SSW 12.7 mph 17.3 mph N/A   Clear
11:55 AM 48.2 °F - 21.6 °F 35% 29.83 in 10.0 mi West 6.9 mph - N/A   Clear
12:15 PM 49.5 °F - 21.9 °F 34% 29.82 in 10.0 mi West 8.1 mph - N/A   Clear
12:35 PM 50.5 °F - 20.7 °F 31% 29.81 in 10.0 mi WSW 10.4 mph 16.1 mph N/A   Clear
12:55 PM 51.3 °F - 20.5 °F 30% 29.79 in 10.0 mi SW 8.1 mph 16.1 mph N/A   Clear
1:20 PM 52.7 °F - 19.0 °F 27% 29.78 in 10.0 mi SW 8.1 mph 19.6 mph N/A   Clear
1:35 PM 52.9 °F - 18.1 °F 26% 29.77 in 10.0 mi WSW 9.2 mph - N/A   Clear
1:55 PM 53.8 °F - 17.2 °F 24% 29.76 in 10.0 mi West 9.2 mph - N/A   Clear
2:15 PM 54.3 °F - 15.6 °F 22% 29.76 in 10.0 mi West 10.4 mph 16.1 mph N/A   Clear
2:35 PM 54.5 °F - 13.8 °F 20% 29.77 in 10.0 mi West 10.4 mph 18.4 mph N/A   Clear
2:55 PM 54.5 °F - 15.8 °F 22% 29.77 in 10.0 mi West 6.9 mph 16.1 mph N/A   Clear
3:15 PM 54.7 °F - 16.0 °F 22% 29.77 in 10.0 mi SW 8.1 mph - N/A   Clear
3:35 PM 55.2 °F - 16.3 °F 22% 29.78 in 10.0 mi West 6.9 mph - N/A   Clear
3:55 PM 55.0 °F - 15.4 °F 21% 29.78 in 10.0 mi West 8.1 mph 16.1 mph N/A   Clear
4:15 PM 55.4 °F - 16.7 °F 22% 29.79 in 10.0 mi West 6.9 mph - N/A   Clear
4:35 PM 55.2 °F - 14.5 °F 20% 29.79 in 10.0 mi WSW 4.6 mph - N/A   Clear
4:55 PM 54.7 °F - 13.3 °F 19% 29.79 in 10.0 mi West 4.6 mph - N/A   Scattered Clouds
5:15 PM 54.5 °F - 12.9 °F 19% 29.80 in 10.0 mi WSW 4.6 mph - N/A   Scattered Clouds
5:35 PM 54.0 °F - 14.5 °F 21% 29.81 in 10.0 mi WSW 4.6 mph - N/A   Clear
5:55 PM 52.9 °F - 16.0 °F 23% 29.82 in 10.0 mi SW 4.6 mph - N/A   Clear
6:15 PM 52.2 °F - 16.7 °F 25% 29.83 in 10.0 mi Calm Calm - N/A   Clear
6:35 PM 46.6 °F - 24.1 °F 41% 29.84 in 10.0 mi Calm Calm - N/A   Clear
6:55 PM 43.9 °F - 25.3 °F 48% 29.84 in 10.0 mi Calm Calm - N/A   Clear
7:15 PM 44.4 °F 42.9 °F 24.1 °F 45% 29.86 in 10.0 mi SE 3.5 mph - N/A   Clear
7:35 PM 45.7 °F - 19.9 °F 36% 29.86 in 10.0 mi Calm Calm - N/A   Clear
7:55 PM 43.5 °F - 21.7 °F 42% 29.87 in 10.0 mi Calm Calm - N/A   Clear
8:15 PM 43.5 °F - 21.7 °F 42% 29.88 in 10.0 mi Calm Calm - N/A   Clear
8:35 PM 40.8 °F - 24.4 °F 52% 29.89 in 10.0 mi Calm Calm - N/A   Clear
8:55 PM 37.2 °F - 26.2 °F 65% 29.91 in 10.0 mi Calm Calm - N/A   Clear
9:15 PM 36.3 °F 33.7 °F 25.2 °F 64% 29.93 in 10.0 mi NW 3.5 mph - N/A   Clear
9:35 PM 37.2 °F - 22.5 °F 55% 29.94 in 10.0 mi Calm Calm - N/A   Clear
9:55 PM 36.5 °F 33.9 °F 21.0 °F 54% 29.95 in 10.0 mi NNW 3.5 mph - N/A   Clear
10:15 PM 36.9 °F - 22.8 °F 57% 29.96 in 10.0 mi Calm Calm - N/A   Clear
10:35 PM 37.8 °F 35.3 °F 19.9 °F 49% 29.97 in 10.0 mi NNW 3.5 mph - N/A   Clear
10:55 PM 36.3 °F - 20.3 °F 52% 29.98 in 10.0 mi Calm Calm - N/A   Clear
11:15 PM 35.1 °F 32.2 °F 19.2 °F 53% 29.99 in 10.0 mi North 3.5 mph - N/A   Clear
11:35 PM 36.9 °F 33.1 °F 15.6 °F 42% 30.00 in 10.0 mi North 4.6 mph - N/A   Clear
11:55 PM 37.9 °F 34.4 °F 12.2 °F 35% 30.01 in 10.0 mi North 4.6 mph - N/A   Clear